Olympia, WA
on Friday, January 4, 2013

Friday
Previous Day Next Day
Daily Summary
 ActualAverageRecord
Temperature
Mean Temperature °F 39°F  
Max Temperature 49°F 44°F 61°F (1984)
Min Temperature 39°F 33°F 9°F (1959)
Degree Days
Heating Degree Days 21 26  
Month to date heating degree days 120 104  
Since 1 July heating degree days 2283 2374  
Cooling Degree Days 0 0  
Month to date cooling degree days 0 0  
Year to date cooling degree days 0 0  
Moisture
Dew Point 40°F   
Average Humidity 90    
Maximum Humidity 100    
Minimum Humidity 80    
Precipitation
Precipitation 0.04 in 0.26 in 1.58 in (1954)
Month to date precipitation 0.12 1.01  
Year to date precipitation 0.12 1.01  
Wind
Wind Speed 5 mph   
Max Wind Speed 14 mph   
Max Gust Speed 18 mph   
Visibility 5 miles   
Events Fog , Rain   

Key: T is trace of precipitation, MM is missing value
Source: NWS Daily Summary
Time(PST)TemperatureDew PointHumidity Pressure Visibility Wind DirectionWind SpeedGust SpeedPrecipitationEvents Conditions
12:54 AM 41.0°F 37.9°F 89% 30.19 in 10.0 miles SW 9.2 mph - 0.02 in   Overcast
1:54 AM 41.0°F 37.9°F 89% 30.22 in 5.0 miles SW 10.4 mph - 0.00 in   Overcast
2:54 AM 41.0°F 39.0°F 93% 30.24 in 8.0 miles SW 6.9 mph - 0.01 in   Overcast
3:54 AM 39.2°F 39.2°F 100% 30.24 in 4.0 miles SW 6.9 mph - N/A Rain Light Rain
4:54 AM 39.2°F 37.4°F 93% 30.24 in 7.0 miles SW 9.2 mph - N/A   Overcast
5:03 AM 39.9°F 37.9°F 93% 30.24 in 7.0 miles SW 9.2 mph - N/A   Overcast
5:54 AM 41.0°F 39.0°F 93% 30.27 in 8.0 miles SW 9.2 mph - N/A   Overcast
6:54 AM 39.9°F 39.0°F 97% 30.29 in 6.0 miles Variable 6.9 mph - N/A   Overcast
7:40 AM 39.9°F 39.0°F 97% 30.29 in 4.0 miles West 4.6 mph - 0.01 in   Overcast
7:54 AM 39.9°F 39.0°F 97% 30.30 in 4.0 miles West 5.8 mph - 0.01 in   Overcast
8:51 AM 39.2°F 39.2°F 100% 30.32 in 1.8 miles West 4.6 mph - N/A   Overcast
8:54 AM 39.9°F 39.0°F 97% 30.33 in 2.0 miles WSW 5.8 mph - N/A   Overcast
9:20 AM 39.9°F 39.9°F 100% 30.32 in 1.8 miles SSW 4.6 mph - N/A   Overcast
9:30 AM 41.0°F 39.9°F 96% 30.32 in 2.0 miles SSW 5.8 mph - N/A   Overcast
9:54 AM 42.1°F 41.0°F 96% 30.33 in 4.0 miles SSW 6.9 mph - N/A   Overcast
10:54 AM 45.0°F 42.1°F 90% 30.33 in 10.0 miles Variable 4.6 mph - N/A   Overcast
11:54 AM 46.0°F 41.0°F 83% 30.30 in 10.0 miles SSW 5.8 mph - N/A   Mostly Cloudy
12:01 PM 46.9°F 42.1°F 83% 30.29 in 10.0 miles SSW 8.1 mph - N/A   Partly Cloudy
12:24 PM 46.9°F 42.1°F 83% 30.29 in 10.0 miles South 5.8 mph - N/A   Mostly Cloudy
12:54 PM 46.0°F 42.1°F 86% 30.28 in 10.0 miles SSE 9.2 mph - N/A   Overcast
1:54 PM 48.0°F 42.1°F 80% 30.26 in 10.0 miles Calm Calm - N/A   Scattered Clouds
2:54 PM 48.0°F 42.1°F 80% 30.25 in 10.0 miles NW 3.5 mph - N/A   Scattered Clouds
3:54 PM 46.0°F 42.1°F 86% 30.24 in 10.0 miles NNE 5.8 mph - N/A   Overcast
4:54 PM 45.0°F 42.1°F 90% 30.23 in 10.0 miles NE 3.5 mph - N/A   Partly Cloudy
5:27 PM 42.8°F 41.0°F 93% 30.22 in 10.0 miles NNW 3.5 mph - N/A   Mostly Cloudy
5:54 PM 43.0°F 41.0°F 93% 30.22 in 10.0 miles Calm Calm - N/A   Mostly Cloudy
6:54 PM 41.0°F 39.9°F 96% 30.20 in 6.0 miles Calm Calm - N/A   Overcast
7:54 PM 41.0°F 39.9°F 96% 30.20 in 6.0 miles NNE 4.6 mph - N/A   Clear
8:54 PM 39.9°F 39.9°F 100% 30.19 in 3.0 miles Calm Calm - N/A   Overcast
9:38 PM 39.9°F 39.0°F 97% 30.18 in 1.8 miles Calm Calm - N/A   Mostly Cloudy
9:50 PM 39.2°F 39.2°F 100% 30.18 in 2.5 miles Calm Calm - N/A   Overcast
9:54 PM 39.9°F 39.0°F 97% 30.19 in 2.5 miles Calm Calm - N/A   Overcast
9:59 PM 39.9°F 39.0°F 97% 30.18 in 1.2 miles Calm Calm - N/A   Overcast
10:18 PM 39.0°F 39.0°F 100% 30.18 in 0.5 miles Calm Calm - N/A Fog Fog
10:29 PM 41.0°F 39.9°F 96% 30.17 in 1.5 miles NNE 3.5 mph - N/A   Overcast
10:36 PM 39.9°F 39.9°F 100% 30.17 in 2.5 miles North 3.5 mph - N/A   Overcast
10:41 PM 39.0°F 39.0°F 100% 30.17 in 1.2 miles Calm Calm - N/A   Overcast
10:51 PM 39.2°F 39.2°F 100% 30.17 in 0.8 miles Calm Calm - N/A   Overcast
10:54 PM 39.9°F 39.0°F 97% 30.18 in 0.8 miles Calm Calm - N/A   Overcast
11:04 PM 39.0°F 39.0°F 100% 30.18 in 1.5 miles Calm Calm - N/A   Overcast
11:09 PM 39.9°F 39.0°F 97% 30.18 in 3.0 miles Calm Calm - N/A   Overcast
11:47 PM 39.0°F 39.0°F 100% 30.17 in 1.8 miles Calm Calm - N/A   Overcast
11:54 PM 39.0°F 39.0°F 100% 30.17 in 1.2 miles SE 3.5 mph - N/A   Overcast
Moon Phase
Jan. 04 Jan. 04 Jan. 11 Jan. 18 Jan. 26
Sunrise:07:57 AM (PST) Moon Rise:No Moon Rise/
Sunset:04:36 PM (PST) Moon Set:11:12 AM (PST)1/4

Copyright © 2014 The Weather Underground, Inc.